Hourly Weather Rugaec

Today, 16 April, Friday

Time Temperature Precipitation Wind Pressure Humidity
00:00 +5°C° 0 mm 5 mps 744 mmHg 95%
01:00 +5°C° 0 mm 5 mps 743 mmHg 95%
02:00 +5°C° 0 mm 5 mps 743 mmHg 96%
03:00 +6°C° 0 mm 4 mps 743 mmHg 96%
04:00 +6°C° 0 mm 4 mps 743 mmHg 96%
05:00 +6°C° 0 mm 4 mps 743 mmHg 96%
06:00 +7°C° 0 mm 4 mps 743 mmHg 95%
07:00 +7°C° 0 mm 4 mps 743 mmHg 94%
08:00 +7°C° 0 mm 4 mps 743 mmHg 93%
09:00 +8°C° 0.1 mm 4 mps 743 mmHg 91%
10:00 +8°C° 0.1 mm 4 mps 743 mmHg 88%
11:00 +10°C° 0.1 mm 4 mps 743 mmHg 85%
12:00 +10°C° 0.5 mm 5 mps 743 mmHg 80%
13:00 +12°C° 0.5 mm 5 mps 743 mmHg 75%
14:00 +13°C° 0.5 mm 6 mps 743 mmHg 71%
15:00 +12°C° 0.7 mm 5 mps 743 mmHg 71%
16:00 +12°C° 0.7 mm 5 mps 743 mmHg 72%
17:00 +10°C° 0.7 mm 5 mps 743 mmHg 73%
18:00 +10°C° 0.1 mm 4 mps 744 mmHg 78%
19:00 +9°C° 0.1 mm 3 mps 744 mmHg 83%
20:00 +8°C° 0.1 mm 3 mps 745 mmHg 88%
21:00 +7°C° 0 mm 3 mps 745 mmHg 89%
22:00 +7°C° 0 mm 3 mps 745 mmHg 90%
23:00 +6°C° 0 mm 2 mps 745 mmHg 92%

Tomorrow, 17 April, Saturday

Time Temperature Precipitation Wind Pressure Humidity
00:00 +5°C° 0 mm 3 mps 745 mmHg 93%
01:00 +5°C° 0 mm 3 mps 745 mmHg 94%
02:00 +5°C° 0 mm 3 mps 746 mmHg 95%
03:00 +5°C° 0 mm 3 mps 746 mmHg 95%
04:00 +5°C° 0 mm 2 mps 746 mmHg 96%
05:00 +5°C° 0 mm 2 mps 746 mmHg 96%
06:00 +5°C° 0 mm 3 mps 747 mmHg 92%
07:00 +7°C° 0 mm 3 mps 747 mmHg 88%
08:00 +8°C° 0 mm 3 mps 747 mmHg 84%
09:00 +10°C° 0.1 mm 3 mps 747 mmHg 77%
10:00 +11°C° 0.1 mm 4 mps 748 mmHg 70%
11:00 +12°C° 0.1 mm 4 mps 748 mmHg 63%
12:00 +13°C° 0.2 mm 4 mps 748 mmHg 59%
13:00 +13°C° 0.2 mm 4 mps 748 mmHg 55%
14:00 +14°C° 0.2 mm 4 mps 748 mmHg 52%
15:00 +14°C° 0.1 mm 3 mps 748 mmHg 54%
16:00 +14°C° 0.1 mm 3 mps 748 mmHg 56%
17:00 +13°C° 0.1 mm 3 mps 748 mmHg 58%
18:00 +13°C° 0 mm 2 mps 748 mmHg 63%
19:00 +12°C° 0 mm 2 mps 748 mmHg 68%
20:00 +9°C° 0 mm 2 mps 748 mmHg 73%
21:00 +9°C° 0.1 mm 2 mps 748 mmHg 78%
22:00 +9°C° 0.1 mm 2 mps 748 mmHg 84%
23:00 +8°C° 0.1 mm 3 mps 748 mmHg 89%

Day after tomorrow, 18 April, Sunday

Time Temperature Precipitation Wind Pressure Humidity
00:00 +8°C° 0.4 mm 3 mps 748 mmHg 91%
01:00 +8°C° 0.4 mm 3 mps 748 mmHg 92%
02:00 +8°C° 0.4 mm 3 mps 748 mmHg 94%
03:00 +8°C° 0 mm 3 mps 748 mmHg 94%
04:00 +8°C° 0 mm 3 mps 748 mmHg 94%
05:00 +7°C° 0 mm 3 mps 748 mmHg 95%
06:00 +7°C° 0 mm 4 mps 748 mmHg 90%
07:00 +8°C° 0 mm 4 mps 748 mmHg 86%
08:00 +8°C° 0 mm 4 mps 748 mmHg 81%
09:00 +10°C° 0 mm 4 mps 748 mmHg 76%
10:00 +10°C° 0 mm 5 mps 748 mmHg 71%
11:00 +12°C° 0 mm 5 mps 748 mmHg 66%
12:00 +12°C° 0 mm 5 mps 748 mmHg 66%
13:00 +11°C° 0 mm 4 mps 749 mmHg 66%
14:00 +11°C° 0 mm 4 mps 749 mmHg 66%
15:00 +11°C° 0 mm 4 mps 749 mmHg 67%
16:00 +11°C° 0 mm 4 mps 749 mmHg 67%
17:00 +10°C° 0 mm 3 mps 749 mmHg 67%
18:00 +10°C° 0 mm 3 mps 749 mmHg 70%
19:00 +9°C° 0 mm 3 mps 749 mmHg 74%
20:00 +8°C° 0 mm 3 mps 750 mmHg 77%
21:00 +7°C° 0 mm 3 mps 750 mmHg 80%
22:00 +7°C° 0 mm 2 mps 750 mmHg 84%
23:00 +6°C° 0 mm 2 mps 750 mmHg 88%

19 April, Monday

Time Temperature Precipitation Wind Pressure Humidity
00:00 +6°C° 0 mm 2 mps 750 mmHg 89%
01:00 +5°C° 0 mm 2 mps 749 mmHg 91%
02:00 +5°C° 0 mm 2 mps 749 mmHg 92%
03:00 +4°C° 0 mm 2 mps 749 mmHg 93%
04:00 +4°C° 0 mm 2 mps 749 mmHg 94%
05:00 +3°C° 0 mm 2 mps 749 mmHg 95%
06:00 +3°C° 0 mm 3 mps 749 mmHg 89%
07:00 +5°C° 0 mm 3 mps 749 mmHg 83%
08:00 +7°C° 0 mm 3 mps 749 mmHg 77%
09:00 +6°C° 0 mm 4 mps 749 mmHg 76%
10:00 +6°C° 0 mm 4 mps 749 mmHg 76%
11:00 +6°C° 0 mm 4 mps 749 mmHg 75%
12:00 +6°C° 0 mm 4 mps 749 mmHg 74%
13:00 +7°C° 0 mm 4 mps 748 mmHg 72%
14:00 +7°C° 0 mm 4 mps 748 mmHg 70%
15:00 +7°C° 0 mm 4 mps 748 mmHg 72%
16:00 +8°C° 0 mm 3 mps 748 mmHg 73%
17:00 +8°C° 0 mm 3 mps 747 mmHg 74%
18:00 +8°C° 0 mm 3 mps 747 mmHg 76%
19:00 +8°C° 0 mm 3 mps 747 mmHg 78%
20:00 +6°C° 0 mm 4 mps 746 mmHg 80%
21:00 +6°C° 0 mm 4 mps 746 mmHg 82%
22:00 +7°C° 0 mm 3 mps 746 mmHg 84%
23:00 +5°C° 0 mm 3 mps 745 mmHg 86%

20 April, Tuesday

Time Temperature Precipitation Wind Pressure Humidity
00:00 +5°C° 0 mm 3 mps 745 mmHg 87%
01:00 +5°C° 0 mm 4 mps 745 mmHg 88%
02:00 +5°C° 0 mm 4 mps 744 mmHg 89%
03:00 +5°C° 0 mm 4 mps 744 mmHg 90%
04:00 +4°C° 0 mm 4 mps 744 mmHg 91%
05:00 +4°C° 0 mm 4 mps 743 mmHg 91%
06:00 +5°C° 0 mm 5 mps 743 mmHg 90%
07:00 +5°C° 0 mm 5 mps 742 mmHg 88%
08:00 +5°C° 0 mm 5 mps 742 mmHg 87%
09:00 +6°C° 0 mm 5 mps 741 mmHg 83%
10:00 +7°C° 0 mm 5 mps 741 mmHg 78%
11:00 +8°C° 0 mm 5 mps 740 mmHg 74%
12:00 +7°C° 0.1 mm 5 mps 740 mmHg 79%
13:00 +7°C° 0.1 mm 5 mps 740 mmHg 83%
14:00 +6°C° 0.1 mm 5 mps 739 mmHg 88%
15:00 +6°C° 0 mm 5 mps 739 mmHg 87%
16:00 +6°C° 0 mm 5 mps 738 mmHg 86%
17:00 +5°C° 0 mm 6 mps 738 mmHg 86%
18:00 +5°C° 0 mm 6 mps 738 mmHg 85%
19:00 +5°C° 0 mm 6 mps 737 mmHg 83%
20:00 +5°C° 0 mm 6 mps 737 mmHg 82%
21:00 +4°C° 0.1 mm 6 mps 737 mmHg 84%
22:00 +4°C° 0.1 mm 6 mps 736 mmHg 85%
23:00 +4°C° 0.1 mm 6 mps 736 mmHg 86%

21 April, Wednesday

Time Temperature Precipitation Wind Pressure Humidity
00:00 +4°C° 0.3 mm 6 mps 736 mmHg 87%
01:00 +4°C° 0.3 mm 6 mps 736 mmHg 87%
02:00 +3°C° 0.3 mm 6 mps 736 mmHg 87%
03:00 +3°C° 0.1 mm 6 mps 735 mmHg 88%
04:00 +3°C° 0.1 mm 6 mps 735 mmHg 88%
05:00 +3°C° 0.1 mm 6 mps 735 mmHg 88%
06:00 +3°C° 0 mm 6 mps 736 mmHg 86%
07:00 +3°C° 0 mm 6 mps 736 mmHg 84%
08:00 +4°C° 0 mm 6 mps 736 mmHg 81%
09:00 +5°C° 0 mm 6 mps 736 mmHg 75%
10:00 +6°C° 0 mm 7 mps 736 mmHg 69%
11:00 +8°C° 0 mm 7 mps 737 mmHg 63%
12:00 +8°C° 0 mm 7 mps 737 mmHg 62%
13:00 +9°C° 0 mm 6 mps 737 mmHg 61%
14:00 +9°C° 0 mm 6 mps 738 mmHg 60%
15:00 +9°C° 0.1 mm 6 mps 738 mmHg 62%
16:00 +9°C° 0.1 mm 5 mps 738 mmHg 64%
17:00 +9°C° 0.1 mm 5 mps 739 mmHg 65%
18:00 +8°C° 0 mm 4 mps 739 mmHg 71%
19:00 +7°C° 0 mm 4 mps 740 mmHg 76%
20:00 +5°C° 0 mm 3 mps 740 mmHg 81%
21:00 +5°C° 0 mm 3 mps 741 mmHg 85%
22:00 +4°C° 0 mm 3 mps 741 mmHg 88%
23:00 +3°C° 0 mm 3 mps 742 mmHg 92%
Show more